Regional Weather Roundup
Issued by NWS Grand Forks, ND

Home | Current Version | Previous Version | Text Only | Print | Product List | Glossary Off
Versions: 1 2 3 4 5 6 7 8 9 10 11 12 13 14 15 16 17 18 19 20 21 22 23 24 25 26 27 28 29 30 31 32 33 34 35 36 37 38 39 40 41 42 43 44 45 46 47 48 49 50

000
ASUS43 KFGF 020310
RWRFGF
PRAIRIE TO PINES  WEATHER ROUNDUP
NATIONAL WEATHER SERVICE EASTERN NORTH DAKOTA/GRAND FORKS ND
1000 PM CDT SUN MAY 01 2016

 **SATELLITE DATA USED TO AUGMENT SKY COVER AT AUTOMATED STATIONS**
 *****  WEATHER ACROSS EASTERN NORTH DAKOTA  *****

CITY           SKY/WX    TMP DP  RH WIND       PRES   REMARKS
GRAND FORKS    PTCLDY    54  30  40 E7        30.12S
GRAND FRKS AFB CLEAR     47  34  59 SW3       30.12F
DEVILS LAKE    CLEAR     53  32  44 SW6       30.13S
FARGO          CLEAR     54  27  35 CALM      30.13R
WAHPETON ARPT  CLEAR     50  28  43 CALM      30.14R
$$

 ***** WEATHER ACROSS CENTRAL AND WESTERN NORTH DAKOTA  *****

CITY           SKY/WX    TMP DP  RH WIND       PRES   REMARKS
BISMARCK       CLEAR     49  32  52 CALM      30.16S
MINOT          CLEAR     57  26  30 SE5       30.11F
JAMESTOWN      CLEAR     50  29  44 CALM      30.14S
MINOT AFB      CLEAR     53  27  37 S7        30.09F
GARRISON         N/A     52  27  38 CALM      30.13S
WILLISTON      PTCLDY    55  31  39 SW6       30.12F
DICKINSON      CLEAR     49  29  46 NW5       30.16R
HETTINGER      CLEAR     41  31  67 W5        30.19R
$$

 *****  OTHER AIRPORT OBSERVATIONS IN OUR AREA  *****

CITY           SKY/WX    TMP DP  RH WIND       PRES   REMARKS
WALHALLA       FAIR      55  28  35 S5        30.12R
GRAFTON AIRPOR FAIR      54  32  43 CALM      30.14S HAZE
VALLEY CITY AR FAIR      50  27  40 N5        30.16S
CANDO          FAIR      52  27  37 CALM      30.14S
CAVALIER APRT  FAIR      52  36  54 SW6       30.11S
GWINNER        FAIR      54  32  43 CALM      30.15S
SHEYENNE NWR     N/A     46  31  55 CALM      29.95S
ROLLA          FAIR      50  27  40 S3        30.12F
 ***** THE ABOVE OBSERVATIONS ARE NON NWS ARE NOT QUALITY
       CONTROLLED AND MAY MIS-REPORT RAIN FOR SNOW...
$$

  *****  WEATHER ACROSS NORTHERN MINNESOTA  *****

CITY           SKY/WX    TMP DP  RH WIND       PRES   REMARKS
FLAG ISLAND    CLEAR     48  28  46 CALM      30.13S
WARROAD        CLEAR     45  34  65 CALM      30.15S
ROSEAU         CLEAR     50  34  53 E3        30.14S
HALLOCK        PTCLDY    52  21  30 S5        30.12S
THF RVR FALLS  CLEAR     52  25  35 E6        30.15S
BAUDETTE       CLEAR     44  28  53 CALM      30.14S
WASKISH        CLEAR     45  39  81 CALM      30.14S
CROOKSTON      CLEAR     55  27  33 NE5       30.14S
STEPHEN NDAWN    N/A     48  27  43 SE3         N/A
GREENBUSH NDAW   N/A     46  37  71 SE3         N/A
$$
  *****  WEATHER ACROSS CENTRAL AND WEST MINNESOTA  *****

CITY           SKY/WX    TMP DP  RH WIND       PRES   REMARKS
FOSSTON        CLEAR     45  27  49 CALM      30.15R
BEMIDJI        CLEAR     44  29  55 CALM      30.13F
PARK RAPIDS    CLEAR     48  30  49 N3        30.13R
ELBOW LAKE     FAIR      55  31  40 CALM      30.14S
WADENA         CLEAR     48  32  53 CALM      30.13S
DETROIT LAKES  CLEAR     54  32  43 NE3       30.14S
MOORHEAD       CLEAR     55  27  33 CALM      30.14S
FERGUS FALLS   CLEAR     55  30  38 CALM      30.12R
MORRIS MN      CLEAR     52  32  46 CALM      30.13S
STAPLES        CLEAR     46  34  61 CALM      30.13S
$$
  *****  WEATHER ELSEWHERE ACROSS MINNESOTA  *****

CITY           SKY/WX    TMP DP  RH WIND       PRES   REMARKS
DULUTH         CLEAR     42  30  62 E3        30.15S
INTRNTL FALLS  CLEAR     37  31  78 CALM      30.13S
ELY            CLEAR     46  30  53 CALM      30.15S
CLOQUET        CLEAR     41  30  65 CALM      30.15F
WHEATON        CLEAR     54  34  47 CALM      30.16S
BRAINERD       CLEAR     47  32  56 CALM      30.14R
HIBBING        CLEAR     42  31  64 SE5       30.14R
ALEXANDRIA     CLEAR     51  31  46 CALM      30.14S
SAINT CLOUD    CLEAR     47  33  58 NE3       30.13S
MINNEAPOLIS    PTCLDY    55  33  43 N8        30.10S
$$

  *****  WEATHER ACROSS SOUTH DAKOTA  *****

CITY           SKY/WX    TMP DP  RH WIND       PRES   REMARKS
SIOUX FALLS    CLEAR     46  35  65 CALM      30.16R
BROOKINGS      NOT AVBL
WATERTOWN      CLEAR     47  32  56 N3        30.15S
HURON          CLEAR     48  37  65 CALM      30.17R
SISSETON         N/A     48  33  56 W6        30.14R
ABERDEEN       CLEAR     45  33  63 SW5       30.16S
MITCHELL       CLEAR     52  40  63 CALM      30.18R
PIERRE         CLEAR     42  35  76 NW9       30.18R
MOBRIDGE       CLEAR     45  34  65 CALM      30.15F
RAPID CITY     CLEAR     39  30  70 NE6       30.22R
$$

  *****  SOME WEATHER IN NEARBY STATES *****

CITY           SKY/WX    TMP DP  RH WIND       PRES   REMARKS
GLASGOW MT     MOCLDY    58  33  39 W5        30.17S
GREAT FALLS MT CLEAR     50  34  54 NE7       30.18S
CHEYENNE WY    PTCLDY    34  23  64 NW5       30.27R
SCOTTSBLUFF NE CLEAR     41  33  73 S8        30.25R
OMAHA NE       MOCLDY    49  45  86 N3        30.15S
DES MOINES IA  CLOUDY    49  45  86 NW3       30.11R
DAVENPORT IA   CLOUDY    49  47  93 N7        30.04R
CHICAGO IL     LGT RAIN  46  45  96 NE8       29.99R
EAU CLAIRE WI  CLOUDY    56  34  43 N8        30.08R
LA CROSSE WI   CLEAR     48  40  73 CALM      30.07S
$$

  *****  SOME NATIONAL WEATHER *****

CITY           SKY/WX    TMP DP  RH WIND       PRES   REMARKS
LA GUARDIA NY  CLOUDY    46  43  89 NE8       30.09F
RALEIGH NC     CLOUDY    68  64  87 SW5       30.03R
ATLANTA GA     CLOUDY    68  64  87 E6        30.00F
NEW ORLEANS LA MOCLDY    74  63  68 VRB3      29.89R
OKLAHOMA CITY  CLOUDY    54  45  71 N14       30.15R
ALBUQUERQUE NM MOCLDY    41  34  76 E14       30.22R
SALT LAKE CITY MOCLDY    59  25  27 E8        30.04R
LOS ANGELES CA PTCLDY    59  52  77 W8        29.95R
BOISE ID       CLEAR     65  41  41 NW5       30.03R
SEATTLE WA     CLEAR     72  45  37 N9        29.94F
$$

*** WEATHER ACROSS MANITOBA...SASKATCHEWAN AND ONTARIO ***
                ***ONTARIO***

CITY           SKY/WX    TMP DP  RH WIND       PRES   REMARKS
GERALDTON      PTCLDY    36  30  80 CALM      30.17F
THUNDER BAY    CLEAR     39  34  81 CALM      30.16S
SIOUX LOOKOUT  PTCLDY    39  30  70 S3        30.12F
TORONTO        CLOUDY    45  41  87 NE9       30.05R
BIG TROUT LK   CLOUDY    45  30  57 E3        30.07F
PICKLE LAKE    NOT AVBL
DRYDEN         CLEAR     52  28  40 S6        30.12S
KENORA         PTCLDY    50  28  43 SW5       30.13S
$$
                *** MANITOBA***

CITY           SKY/WX    TMP DP  RH WIND       PRES   REMARKS
BRANDON        MOCLDY    55  27  33 S9        30.06F
DAUPHIN        LGT RAIN  55  43  62 N20G37    30.08R
ISLAND LAKE    PTCLDY    52  32  46 SE5       30.05F
PILOT MOUND      N/A     55  23  28 SW2         N/A
THE PAS        PTCLDY    45  41  87 SE2       30.05R
THOMPSON       PTCLDY    45  39  81 S2        30.01F
WINNIPEG       MOCLDY    57  28  33 S2        30.09F
LYNN LAKE      CLEAR     50  37  62 NW5       30.00S
CHURCHILL      PTCLDY    43  36  75 S9        29.89F
$$
                ***SASKATCHEWAN***

CITY           SKY/WX    TMP DP  RH WIND       PRES   REMARKS
ESTEVAN        MOCLDY    54  30  40 SW6       30.07F
KINDERSLEY     PTCLDY    55  32  41 W7        30.08S
LLOYDMINSTER   PTCLDY    55  36  47 W6        30.04R
PRINCE ALBERT  CLOUDY    55  25  30 E3        30.02R
REGINA         MOCLDY    57  34  41 W7        30.07F
YORKTON        MOCLDY    59  37  44 SW9       29.99F
N. BATTLEFORD  CLEAR     61  30  31 NW6       30.03S
LA RONGE       PTCLDY    52  32  46 E3        30.02F
SASKATOON      MOCLDY    57  32  38 SW2       30.04S
SWIFT CURRENT  MOCLDY    55  36  47 W9        30.11S
$$
NOTE: THESE ARE AUTOMATED STATIONS WITH LIMITED QUALITY CONTROL
      "FAIR" INDICATES FEW OR NO CLOUDS BELOW 12,000 FEET WITH NO
      SIGNIFICANT WEATHER AND/OR OBSTRUCTIONS TO VISIBILITY.
      SKY/WX - SKY CONDITION AND SIGNIFICANT WEATHER.
      TMP - AIR TEMPERATURE.    DP   - DEWPOINT TEMPERATURE.
      RH  - RELATIVE HUMIDITY.  PRES - PRESSURE.
      HX  - HEAT INDEX.         WCI  - WIND CHILL INDEX.
$



USA.gov is the U.S. government's official web portal to all federal, state and local government web resources and services.